Location: Norton
(51.3000°N, 0.8167°E)
Time: 13:18:12
(UTC+00:00)

Lacrosse 4 Rocket - Pass Details

Date: 03 March 2021
Orbit: 537 x 620 km, 68.0° (Epoch: 11 April)

Event Time Altitude Azimuth Distance (km) Brightness Sun altitude
Rises 19:11:20 0° 173° (S) 2,825 4.8 -14.9°
Reaches altitude 10° 19:13:59 10° 156° (SSE) 1,943 3.8 -15.3°
Enters shadow 19:14:33 12° 151° (SSE) 1,789 3.6 -15.4°
